Location: Great Malvern
(52.1167°N, 2.3167°W)
Time: 06:25:58
(UTC+00:00)

Meteor 2-11 Rocket - Pass Details

Date: 18 September 2020
Orbit: 939 x 957 km, 82.5° (Epoch: 19 October)

Event Time Altitude Azimuth Distance (km) Brightness Sun altitude
Rises 18:45:12 0° 177° (S) 3,621 7.4 -5.3°
Reaches altitude 10° 18:47:42 10° 174° (S) 2,681 6.7 -5.6°
Maximum altitude 18:53:45 64° 95° (E) 1,058 4.5 -6.6°
Drops below altitude 10° 18:59:51 10° 16° (NNE) 2,701 6.8 -7.5°
Sets 19:02:23 0° 13° (NNE) 3,651 7.5 -7.9°
